Burns Flat, OK

10:17 PM CST on February 27, 2017 (GMT -0600)
Clinton-Sherman

Weather History for KCSM - December, 2012

Change the Weather History Date:

Tuesday, December 4, 2012

  Actual Average Record
Temperature  
Mean Temperature 52 °F -  
Max Temperature 63 °F 52 °F 73 °F (2007)
Min Temperature 39 °F 32 °F 21 °F (2005)
Degree Days  
Heating Degree Days 13    
Growing Degree Days 2 (Base 50)    
Moisture  
Dew Point 24 °F    
Average Humidity 40    
Maximum Humidity 62    
Minimum Humidity 14    
Precipitation  
Precipitation 0.00 in - - ()
Sea Level Pressure  
Sea Level Pressure 30.27 in    
Wind  
Wind Speed 12 mph (NNE)    
Max Wind Speed 18 mph    
Max Gust Speed 16 mph    
Visibility 10 miles    
Events      
Averages and records for this station are not official NWS values.
T = Trace of Precipitation, MM = Missing Value Source: NWS Daily Summary

Daily Weather History Graph

Daily Weather History Graph

Search for Another Location

Airport or City:

Trip Planner

Search our weather history database for the weather conditions in past years. The results will help you decide how hot, cold, wet, or windy it might be!

Date:

Astronomy

Dec. 04, 2012 Rise Set
Actual Time 7:30 AM CST 5:24 PM CST
Civil Twilight 7:02 AM CST 5:52 PM CST
Nautical Twilight 6:30 AM CST 6:23 PM CST
Astronomical Twilight 6:00 AM CST 6:54 PM CST
Moon 11:04 PM CST (12/4) 11:32 AM CST (12/4)
Length of Visible Light 10h 49m
Length of Day
9h 53m
Waning Gibbous, 69% of the Moon is Illuminated
Dec 4
Waning Gibbous
Dec 6
Last Quarter
Dec 13
New
Dec 19
First Quarter
Dec 28
Full

Hourly Weather History & Observations

Time (CST) Temp. Windchill Dew Point Humidity Pressure Visibility Wind Dir Wind Speed Gust Speed Precip Events Conditions
12:53 AM 51.1 °F - 37.0 °F 59% 30.08 in 10.0 mi North 15.0 mph - N/A   Clear
1:53 AM 50.0 °F - 36.0 °F 59% 30.09 in 10.0 mi North 15.0 mph - N/A   Clear
2:53 AM 48.0 °F - 35.1 °F 61% 30.12 in 10.0 mi North 13.8 mph - N/A   Clear
3:53 AM 48.9 °F - 33.1 °F 54% 30.13 in 10.0 mi North 16.1 mph - N/A   Clear
4:53 AM 48.0 °F - 32.0 °F 54% 30.16 in 10.0 mi North 15.0 mph - N/A   Clear
5:53 AM 46.0 °F 39.0 °F 30.9 °F 56% 30.20 in 10.0 mi North 17.3 mph - N/A   Clear
6:53 AM 45.0 °F 37.4 °F 30.9 °F 58% 30.21 in 10.0 mi NNE 18.4 mph - N/A   Clear
7:53 AM 43.0 °F 36.0 °F 30.9 °F 62% 30.28 in 10.0 mi North 13.8 mph - N/A   Clear
8:53 AM 48.0 °F - 32.0 °F 54% 30.31 in 10.0 mi North 13.8 mph - N/A   Clear
9:53 AM 52.0 °F - 28.0 °F 40% 30.32 in 10.0 mi NNE 15.0 mph - N/A   Clear
10:53 AM 55.0 °F - 26.1 °F 33% 30.34 in 10.0 mi North 10.4 mph - N/A   Clear
11:53 AM 59.0 °F - 23.0 °F 25% 30.33 in 10.0 mi North 10.4 mph - N/A   Clear
12:53 PM 60.1 °F - 21.0 °F 22% 30.32 in 10.0 mi NNW 8.1 mph - N/A   Clear
1:53 PM 62.1 °F - 18.0 °F 18% 30.30 in 10.0 mi North 9.2 mph 16.1 mph N/A   Clear
2:53 PM 63.0 °F - 12.9 °F 14% 30.29 in 10.0 mi NNE 8.1 mph - N/A   Clear
3:53 PM 62.1 °F - 12.9 °F 15% 30.30 in 10.0 mi NNE 8.1 mph - N/A   Clear
4:53 PM 59.0 °F - 17.1 °F 20% 30.31 in 10.0 mi NNE 4.6 mph - N/A   Clear
5:53 PM 54.0 °F - 16.0 °F 22% 30.32 in 10.0 mi North 4.6 mph - N/A   Clear
6:53 PM 52.0 °F - 16.0 °F 24% 30.32 in 10.0 mi NNE 4.6 mph - N/A   Clear
7:53 PM 45.0 °F - 18.0 °F 34% 30.34 in 10.0 mi Calm Calm - N/A   Clear
8:53 PM 42.1 °F - 19.9 °F 41% 30.34 in 10.0 mi Calm Calm - N/A   Clear
9:53 PM 41.0 °F 39.0 °F 19.9 °F 43% 30.33 in 10.0 mi East 3.5 mph - N/A   Clear
10:53 PM 43.0 °F 41.3 °F 19.0 °F 38% 30.32 in 10.0 mi ESE 3.5 mph - N/A   Clear
11:53 PM 39.0 °F - 19.9 °F 46% 30.34 in 10.0 mi Calm Calm - N/A   Clear